Wind_Speed
5 7 9 11 13 14 15 15 16 18 17 17 20 22 24 25 27 29 30 29 30 31 30 30 32 30 31 30 29 29 31 33 41 53 40 35 35 33 32 30 29 28 26
6 8 11 13 14 13 14 16 16 16 18 20 21 22 26 28 28 28 29 29 29 29 28 28 32 31 32 32 33 35 36 34 34 43 37 40 39 34 32 33 31 29 28
9 11 12 13 13 14 16 17 18 19 19 19 23 26 27 27 27 27 28 28 27 29 29 30 28 25 27 28 29 30 31 33 35 38 40 38 38 36 32 31 30 26 24
10 11 10 11 14 16 18 18 18 18 20 24 26 27 27 28 29 30 28 29 31 30 30 27 27 28 29 29 29 29 28 31 35 36 34 35 33 30 28 27 28 26 24
9 10 12 14 16 17 17 17 18 21 24 25 26 27 28 30 29 29 31 33 33 34 29 31 30 29 26 29 30 31 29 29 32 29 31 36 35 27 30 26 26 25 22
10 11 14 15 15 15 16 17 20 23 25 26 27 29 29 29 29 32 32 30 28 28 31 31 31 26 29 29 27 26 26 25 22 23 27 24 23 25 22 22 23 24 29
11 12 14 14 15 16 16 19 22 24 26 27 28 28 29 32 34 32 26 27 27 29 30 29 27 28 26 29 25 24 23 24 22 22 26 28 28 27 24 25 28 30 32
11 13 15 17 18 18 19 21 24 27 27 28 28 29 33 34 30 29 25 24 27 26 25 25 28 26 27 25 25 24 26 26 26 27 29 31 30 29 30 31 31 33 35
11 13 15 17 18 19 21 24 27 28 28 28 30 32 33 31 26 24 23 24 23 24 23 24 26 26 28 27 26 29 29 31 31 33 31 31 32 31 31 30 31 31 39
13 17 18 18 18 20 22 25 27 27 27 30 32 32 27 26 25 23 22 22 28 24 25 26 25 24 26 21 24 28 30 33 27 32 34 35 28 29 30 31 31 31 31
15 17 16 17 18 21 23 25 26 27 29 31 31 27 24 22 27 24 22 23 24 26 26 26 25 21 24 23 24 26 24 24 29 33 35 30 28 26 22 24 28 28 27
15 16 18 20 20 22 24 24 26 27 30 30 28 26 24 27 27 23 22 21 22 24 26 26 21 23 23 26 25 28 26 23 26 23 18 9 10 9 12 15 18 23 26
15 18 19 20 21 23 23 25 27 27 28 27 25 26 27 28 30 26 22 22 24 23 26 26 23 24 25 29 26 20 19 21 18 16 14 11 11 10 11 14 18 23 24
16 17 19 22 22 21 22 24 25 27 25 25 26 26 31 26 29 25 26 27 27 28 28 23 22 28 28 27 24 19 16 15 14 16 18 20 18 15 14 14 18 17 19
16 20 22 21 21 22 24 25 27 24 21 24 24 28 25 28 27 25 25 26 25 26 26 30 29 27 24 22 19 14 15 17 15 14 17 20 21 20 18 16 19 19 18
20 23 22 21 22 23 25 27 22 22 23 19 21 20 23 22 23 24 25 24 25 25 26 25 25 23 22 21 20 19 16 16 17 17 18 18 17 16 18 20 18 21 23
20 21 21 21 21 23 25 26 29 27 23 23 19 20 19 21 22 23 24 25 25 24 22 23 23 22 22 21 20 20 19 15 16 18 14 13 16 19 23 22 22 23 26
20 18 19 20 21 24 24 24 22 26 28 28 22 21 20 20 21 24 25 25 25 22 24 22 26 22 22 20 19 19 18 15 15 14 14 15 17 19 20 23 24 25 27
16 20 20 20 21 22 22 21 20 24 24 27 26 24 23 23 25 27 24 24 25 26 26 24 23 22 21 19 18 17 16 17 15 13 12 14 16 20 25 29 27 25 26
19 20 19 20 21 24 22 21 23 23 24 25 26 27 28 31 31 29 27 26 26 26 25 26 23 21 20 18 17 15 15 15 12 8 8 12 17 23 25 31 23 29 22
20 19 19 18 21 22 21 21 22 23 24 25 26 26 24 27 28 28 28 27 26 26 26 26 23 20 19 17 16 14 14 13 8 5 7 11 19 26 27 30 24 13 4
18 18 18 20 22 20 20 20 22 23 24 25 27 28 26 27 28 28 28 28 27 27 27 25 23 21 18 16 14 13 12 11 9 6 7 11 18 23 23 25 19 8 9
17 18 17 21 22 20 22 21 23 23 25 27 28 29 29 29 28 29 29 29 28 28 27 24 22 19 16 14 12 11 12 11 8 5 5 10 17 21 22 24 17 7 9
17 18 18 22 24 21 24 23 25 24 22 27 30 30 31 30 30 30 30 30 30 30 29 25 21 17 15 12 10 10 9 11 10 6 1 7 13 17 19 22 16 13 9
18 18 18 21 24 24 24 25 24 27 24 26 30 31 32 30 31 32 32 32 32 32 31 26 21 17 13 10 8 9 8 13 14 10 3 4 11 14 16 20 17 12 8
18 18 19 19 23 24 26 25 26 26 26 26 27 29 30 30 31 33 34 34 34 33 32 28 21 15 11 7 6 7 9 14 16 10 5 4 8 11 13 16 15 15 11
Wind_Direction
254 272 286 296 301 301 298 297 300 298 293 293 294 295 297 298 299 297 296 296 294 293 292 290 289 289 285 281 277 276 275 276 276 281 283 286 282 286 285 283 283 280 273
283 295 301 300 298 294 296 300 300 299 297 297 297 298 303 305 303 302 301 299 297 296 295 296 294 290 284 280 278 277 277 275 274 280 283 282 282 283 283 281 280 276 272
293 299 298 294 290 296 300 302 302 300 299 300 304 306 307 306 304 303 302 302 298 298 298 301 303 300 293 289 286 283 278 275 274 278 281 281 281 282 283 282 281 276 271
297 302 300 297 299 299 300 300 301 302 304 307 307 307 308 307 306 304 302 298 299 295 301 297 297 293 291 288 285 285 286 283 281 274 275 280 279 281 284 279 280 279 278
315 309 305 306 305 303 301 303 305 305 306 307 309 310 309 306 304 304 304 303 300 299 299 297 295 294 289 287 290 287 294 293 282 276 277 278 276 274 274 282 277 279 280
312 316 317 316 312 308 306 302 304 308 309 310 310 309 308 306 305 304 302 297 298 296 294 293 293 289 291 289 291 289 281 289 293 289 277 282 283 266 274 268 271 273 279
312 313 314 312 312 311 307 307 309 312 312 311 310 308 308 308 310 308 303 295 291 287 289 295 297 295 293 293 287 286 285 283 283 283 283 280 279 279 274 270 262 268 269
308 309 310 305 304 305 304 308 311 313 313 312 310 311 311 313 313 311 305 296 290 290 290 291 292 291 293 295 288 291 292 291 287 289 288 285 280 274 265 267 269 272 274
316 316 314 309 306 304 304 307 312 313 312 311 311 313 315 314 314 312 306 303 300 298 293 293 295 298 297 290 285 285 286 288 286 283 285 276 271 269 266 264 259 256 263
318 319 316 309 303 303 305 311 313 313 313 313 314 316 316 316 317 314 308 304 305 301 302 300 300 291 299 296 296 292 288 290 298 306 301 294 279 265 259 253 260 262 269
310 315 317 317 313 310 312 314 314 314 313 315 316 318 314 324 331 317 310 306 304 305 307 297 305 309 308 300 294 297 302 306 298 293 295 292 275 269 264 255 249 248 254
313 316 319 318 317 316 315 316 316 316 317 319 321 324 325 329 329 324 316 310 308 308 309 308 311 315 306 304 298 296 296 293 286 297 315 288 278 301 265 259 254 255 257
313 315 318 319 319 316 318 319 320 321 321 323 327 329 324 322 328 329 330 326 321 314 316 315 308 305 307 304 305 305 294 286 284 287 298 303 290 281 281 284 276 266 262
319 322 322 322 320 320 319 323 323 325 326 330 327 318 321 328 326 328 330 329 324 321 323 313 310 309 306 305 300 294 296 297 297 290 285 283 282 285 282 280 288 283 256
326 327 325 324 323 321 323 326 326 328 328 320 316 315 320 321 324 323 320 322 324 320 316 311 313 315 317 319 309 291 291 298 298 290 291 288 283 279 285 288 276 264 252
329 328 326 325 323 323 324 323 326 326 328 323 319 323 314 313 318 319 320 324 322 320 316 317 319 320 317 316 314 314 302 292 294 294 288 287 290 287 289 286 268 256 265
323 326 325 325 326 326 327 328 329 331 332 334 332 330 326 321 321 320 320 325 317 321 323 326 321 319 318 310 308 310 309 297 295 296 290 288 296 300 296 286 266 257 265
327 329 331 333 331 329 330 331 334 331 334 338 349 345 337 329 329 329 327 323 329 334 333 321 322 315 319 309 305 303 304 300 295 292 291 299 308 312 309 304 297 280 257
345 342 340 338 337 338 335 334 333 333 339 337 341 345 347 346 338 333 335 337 337 335 330 327 322 318 317 311 303 295 294 296 293 288 295 315 330 330 320 320 311 290 268
335 339 338 339 341 343 340 339 336 340 340 343 342 342 348 341 333 339 344 342 339 333 331 330 327 320 313 308 305 293 290 286 282 282 309 326 339 336 332 335 334 321 280
338 340 341 343 343 342 343 342 346 343 342 342 341 342 337 333 338 342 342 343 340 340 339 334 328 320 314 306 299 293 284 277 261 267 299 333 347 345 341 352 354 334 304
342 343 346 347 345 347 347 351 350 348 350 349 344 344 343 344 343 344 343 344 344 345 343 337 329 323 314 304 297 285 266 256 231 251 312 343 353 353 352 6 7 7 116
345 346 347 349 349 351 352 350 347 352 356 351 346 348 349 344 346 346 346 346 346 348 347 342 333 325 318 309 301 276 260 232 217 239 321 350 358 357 0 4 11 22 161
349 349 349 351 353 349 354 347 346 348 347 345 348 349 347 347 348 348 349 349 348 349 348 345 338 325 314 306 306 289 243 213 189 192 322 10 3 1 2 4 26 37 153
353 353 353 353 355 353 352 353 349 348 347 347 346 348 345 347 348 349 349 349 349 347 347 346 341 328 313 298 292 283 225 198 182 177 130 20 13 8 6 7 16 23 48
357 357 356 353 354 354 355 351 351 350 351 349 351 350 346 349 350 350 350 349 346 345 346 344 340 329 310 286 271 272 202 192 176 163 133 47 23 14 14 8 10 12 12
Height
1513 1514 1515 1515 1514 1514 1513 1511 1510 1509 1508 1507 1506 1504 1502 1500 1498 1496 1493 1490 1487 1484 1482 1479 1476 1475 1472 1471 1471 1468 1467 1466 1460 1446 1455 1455 1455 1457 1455 1455 1455 1455 1455
1511 1512 1511 1511 1510 1509 1509 1508 1506 1505 1504 1502 1500 1498 1496 1493 1491 1487 1484 1482 1478 1475 1474 1471 1467 1466 1463 1462 1460 1458 1457 1455 1452 1443 1447 1445 1445 1447 1446 1445 1446 1446 1445
1509 1508 1508 1508 1507 1506 1505 1504 1502 1501 1499 1497 1495 1492 1488 1486 1483 1480 1477 1474 1471 1468 1465 1462 1458 1457 1454 1453 1451 1448 1446 1445 1443 1440 1437 1437 1436 1437 1436 1435 1434 1435 1436
1507 1506 1506 1505 1504 1502 1501 1500 1498 1496 1494 1491 1489 1485 1482 1479 1475 1472 1469 1466 1463 1459 1457 1454 1451 1449 1446 1444 1441 1438 1437 1435 1434 1432 1430 1427 1428 1428 1429 1426 1425 1426 1426
1504 1503 1502 1501 1500 1498 1496 1494 1493 1491 1489 1486 1482 1479 1475 1472 1469 1464 1460 1457 1453 1450 1448 1445 1443 1440 1438 1437 1434 1429 1429 1427 1424 1422 1421 1420 1420 1421 1421 1421 1419 1420 1419
1501 1500 1499 1497 1495 1494 1493 1491 1489 1486 1483 1480 1476 1472 1468 1465 1462 1458 1454 1449 1446 1443 1440 1438 1435 1433 1431 1428 1426 1425 1423 1420 1418 1416 1413 1413 1413 1414 1415 1415 1414 1414 1413
1498 1497 1496 1494 1493 1490 1488 1487 1484 1481 1477 1473 1470 1466 1462 1458 1453 1448 1445 1443 1439 1436 1433 1431 1428 1426 1424 1421 1418 1416 1414 1413 1413 1412 1410 1409 1408 1407 1408 1408 1407 1407 1405
1495 1494 1493 1491 1488 1486 1484 1482 1478 1474 1471 1467 1463 1459 1454 1449 1445 1440 1437 1435 1431 1429 1426 1424 1421 1418 1416 1413 1410 1408 1406 1405 1404 1403 1401 1398 1398 1398 1399 1398 1399 1398 1397
1492 1490 1488 1486 1484 1482 1479 1476 1473 1468 1464 1460 1457 1452 1447 1441 1438 1434 1431 1427 1424 1421 1419 1417 1414 1411 1408 1407 1404 1401 1399 1396 1395 1394 1391 1388 1388 1388 1388 1388 1388 1389 1385
1488 1486 1484 1481 1479 1477 1474 1470 1466 1462 1458 1454 1449 1445 1440 1435 1432 1427 1425 1422 1418 1415 1412 1409 1406 1404 1402 1398 1396 1393 1389 1388 1385 1382 1378 1375 1375 1375 1377 1378 1378 1379 1381
1485 1482 1480 1477 1475 1472 1468 1465 1461 1456 1452 1448 1442 1438 1434 1431 1426 1422 1420 1416 1412 1408 1405 1401 1399 1397 1395 1392 1389 1385 1381 1380 1377 1374 1369 1361 1361 1364 1366 1367 1369 1371 1371
1481 1478 1476 1473 1470 1467 1463 1460 1456 1451 1446 1441 1436 1432 1428 1425 1422 1417 1414 1410 1407 1403 1399 1395 1392 1390 1388 1385 1382 1378 1376 1373 1369 1367 1362 1358 1359 1358 1359 1360 1361 1363 1363
1477 1475 1472 1469 1466 1462 1458 1454 1450 1446 1441 1436 1432 1427 1423 1419 1415 1412 1408 1405 1401 1397 1393 1390 1387 1383 1380 1376 1373 1371 1368 1364 1362 1361 1359 1358 1357 1356 1355 1355 1355 1355 1355
1474 1471 1469 1465 1461 1458 1454 1450 1445 1441 1436 1432 1427 1423 1419 1414 1411 1407 1403 1399 1395 1391 1387 1382 1379 1377 1373 1369 1365 1364 1361 1359 1358 1356 1355 1354 1352 1351 1350 1350 1348 1348 1348
1471 1468 1465 1461 1457 1453 1450 1446 1441 1437 1433 1429 1425 1420 1415 1410 1407 1404 1400 1395 1391 1387 1382 1376 1372 1369 1365 1362 1359 1358 1357 1355 1353 1352 1350 1348 1346 1346 1344 1344 1342 1342 1342
1468 1464 1461 1457 1453 1449 1445 1440 1439 1434 1430 1426 1421 1417 1412 1408 1404 1400 1396 1390 1386 1381 1376 1371 1367 1363 1360 1357 1355 1353 1351 1350 1348 1346 1344 1342 1341 1340 1338 1337 1336 1336 1336
1464 1460 1457 1453 1449 1445 1441 1436 1430 1427 1425 1419 1415 1411 1408 1404 1400 1395 1391 1386 1380 1376 1371 1366 1362 1359 1355 1352 1350 1348 1346 1345 1343 1341 1339 1337 1336 1334 1332 1329 1328 1328 1328
1461 1458 1454 1450 1446 1442 1438 1433 1429 1424 1418 1413 1410 1407 1403 1399 1395 1391 1385 1379 1374 1370 1366 1361 1358 1354 1350 1348 1345 1343 1341 1340 1338 1336 1335 1333 1331 1328 1324 1321 1318 1316 1316
1458 1455 1451 1447 1444 1440 1435 1431 1426 1422 1417 1412 1406 1402 1399 1395 1391 1386 1381 1375 1370 1365 1361 1356 1353 1348 1345 1343 1340 1338 1337 1335 1333 1332 1331 1329 1326 1322 1317 1311 1306 1303 1302
1457 1453 1449 1445 1441 1437 1433 1428 1424 1419 1414 1409 1404 1400 1394 1391 1386 1381 1376 1371 1367 1362 1357 1352 1347 1344 1340 1338 1335 1333 1332 1331 1329 1329 1328 1326 1322 1318 1312 1303 1297 1291 1288
1454 1451 1447 1443 1440 1435 1431 1426 1422 1417 1412 1407 1403 1399 1395 1390 1383 1378 1372 1368 1363 1358 1352 1347 1342 1338 1335 1332 1330 1329 1328 1327 1326 1326 1326 1324 1320 1315 1307 1300 1293 1288 1283
1452 1449 1445 1442 1438 1433 1429 1425 1421 1416 1411 1406 1401 1396 1391 1386 1381 1375 1370 1364 1359 1354 1348 1342 1338 1334 1330 1327 1326 1324 1324 1323 1323 1324 1324 1322 1319 1315 1308 1301 1295 1290 1289
1451 1448 1444 1440 1436 1432 1428 1424 1419 1414 1410 1405 1400 1394 1388 1383 1378 1372 1366 1361 1355 1349 1344 1338 1333 1329 1326 1323 1322 1320 1320 1320 1321 1323 1323 1322 1319 1314 1309 1302 1296 1292 1293
1450 1447 1443 1439 1435 1431 1426 1422 1417 1413 1409 1404 1398 1392 1387 1381 1375 1369 1363 1357 1351 1346 1340 1334 1329 1325 1321 1319 1318 1316 1316 1318 1320 1322 1323 1322 1319 1315 1310 1305 1299 1296 1296
1449 1446 1442 1438 1434 1430 1425 1420 1416 1411 1406 1401 1396 1391 1385 1378 1372 1366 1360 1353 1347 1342 1335 1330 1325 1320 1317 1315 1315 1314 1314 1316 1319 1321 1322 1322 1320 1317 1313 1309 1304 1301 1298
1449 1445 1441 1438 1434 1429 1424 1419 1414 1409 1404 1400 1395 1389 1383 1376 1370 1363 1356 1350 1343 1337 1330 1324 1320 1316 1313 1311 1312 1311 1312 1315 1318 1321 1322 1322 1321 1318 1316 1312 1308 1304 1299